Regional Weather Roundup
Issued by NWS

Home | Current Version | Previous Version | Graphics & Text | Print | Product List | Glossary On
Versions: 1 2 3 4 5 6 7 8 9 10 11 12 13 14 15 16 17 18 19 20 21 22 23 24 25 26 27
000
ASUS45 KTFX 211610
RWRMT
MONTANA REGIONAL WEATHER ROUNDUP
NATIONAL WEATHER SERVICE GREAT FALLS MT
1000 AM MDT WED JUN 21 2017

NOTE: "FAIR" INDICATES FEW OR NO CLOUDS BELOW 12000 FEET WITH NO
SIGNIFICANT WEATHER AND/OR OBSTRUCTIONS TO VISIBILITY.

MTZ001>007-043-211700-
WEST OF THE DIVIDE

CITY           SKY/WX    TMP DP  RH WIND       PRES   REMARKS
KALISPELL      SUNNY     70  44  39 SW9       29.98F
MISSOULA       SUNNY     70  38  31 W15       30.06F
BUTTE          MOSUNNY   65  40  39 W9        30.11F
MULLAN PASS    SUNNY     52  37  56 VRB3      30.15S
ANACONDA         N/A     66  37  34 W16       30.08F
DEER LODGE       N/A     66  45  45 NE3       30.09F
EUREKA           N/A     63  46  55 MISG      29.99F
HAMILTON         N/A     68  28  22 SW7       30.09S
LIBBY            N/A     70  39  32 SW3       29.99F
$$

MTZ008-052>055-211700-
SOUTHWEST MONTANA

CITY           SKY/WX    TMP DP  RH WIND       PRES   REMARKS
BOZEMAN        SUNNY     70  48  45 NW5       30.05F
DILLON         SUNNY     68  47  46 SW14      30.07F
W YELLOWSTONE  SUNNY     68  48  49 SW13G21   30.14S
ENNIS          MOSUNNY   70  46  43 CALM      30.12F
THREE FORKS      N/A     71  50  47 E2        30.02F
$$

MTZ009-010-012-014-046-048-049-054-211700-
EAST SLOPES AND CENTRAL MONTANA

CITY           SKY/WX    TMP DP  RH WIND       PRES   REMARKS
CUT BANK       SUNNY     59  42  53 CALM      29.97F
GREAT FALLS    SUNNY     65  44  46 S6        29.97F
HELENA         SUNNY     73  39  29 W24G32    30.00F
CHOTEAU          N/A     63  41  45 CALM      29.99F
$$

MTZ011-013-016-021-045-047-050-051-211700-
NORTH CENTRAL MONTANA

CITY           SKY/WX    TMP DP  RH WIND       PRES   REMARKS
HAVRE          MOSUNNY   64  35  34 CALM      29.95F
LEWISTOWN      SUNNY     62  41  46 W8        30.00F
N BAR RANCH      N/A     68  41  37 NW10G16   30.03S
CHINOOK          N/A     63  39  42 NW5       29.95S
FORT BENTON      N/A     68  37  32 MISG        N/A
$$

MTZ017>020-022>027-061-062-211700-
NORTHEAST MONTANA

CITY           SKY/WX    TMP DP  RH WIND       PRES   REMARKS
GLASGOW        SUNNY     66  45  46 NW18G28   29.88R
JORDAN           N/A     72  39  30 NW12G22   29.91R
SIDNEY         SUNNY     74  54  49 NW21G29   29.79R
WOLF POINT     SUNNY     72  47  40 NW17G24   29.85R
MALTA          MOSUNNY   66  41  39 NW12      29.92F
PLENTYWOOD       N/A     64  46  52 NW29G38   29.77R
POPLAR           N/A     70  52  52 NW17G24   29.84R
$$

MTZ028>42-056>058-211700-
SOUTHCENTRAL AND SOUTHEAST MONTANA

CITY           SKY/WX    TMP DP  RH WIND       PRES   REMARKS
BAKER          SUNNY    N/A N/A N/A NW21G26   29.85R
BILLINGS       MOSUNNY   73  48  41 VRB5      29.98R
LIVINGSTON     MOSUNNY   71  47  42 NW15      30.01F
MILES CITY     SUNNY     77  47  34 NW20      29.88R
BIG TIMBER     SUNNY     72  46  40 W18       30.02F
FORSYTH          N/A     73  46  38 N9        29.91R
ROUNDUP          N/A     74  41  30 N5        29.89S
$$

REGIONAL REPORTS...DAKOTAS

CITY           SKY/WX    TMP DP  RH WIND       PRES   REMARKS
WILLISTON      SUNNY     73  54  51 NW23G30   29.77R
MINOT          MOSUNNY   70  54  56 S16G24    29.67S
DICKINSON      SUNNY     80  48  32 NW16      29.76R
BEACH            N/A     75  50  41 NW21G29   29.85R
CROSBY           N/A     66  52  59 NW29G36   29.75R
TIOGA            N/A     68  59  73 NW24G31   29.75R
WATFORD CITY     N/A     73  55  53 W18G24    29.75R
BISMARCK       SUNNY     78  57  48 S9        29.71F
GRAND FORKS    CLOUDY    70  54  56 S8        29.76S
FARGO          MOSUNNY   73  52  47 S17G28    29.75F
BUFFALO SD       N/A     80  57  45 NW20G29   29.77S
RAPID CITY     SUNNY     82  55  39 N10       29.84S
$$

REGIONAL REPORTS...WYOMING/IDAHO/WASHINGTON

CITY           SKY/WX    TMP DP  RH WIND       PRES   REMARKS
GILLETTE       SUNNY     77  52  41 N18       29.96R
SHERIDAN       MOSUNNY  N/A N/A N/A MISG      29.99S
BUFFALO WY     CLOUDY    73  49  42 N20       30.03R
CODY           CLOUDY    73  48  41 N10       30.03F
YELLOWSTONE LA   N/A     61  45  55 VRB3      30.23F
IDAHO FALLS    MOSUNNY   72  54  53 SW18G25   30.07S
SALMON         SUNNY     70  46  43 N12       30.07F
BOISE          SUNNY     70  49  47 NW15      30.07S
SPOKANE        MOSUNNY   62  38  40 SW8       30.10S
$$

REGIONAL REPORTS...ALBERTA

CITY           SKY/WX    TMP DP  RH WIND       PRES   REMARKS
EDMONTON       MOSUNNY   55  37  50 W24G33    29.81F
CALGARY        MOSUNNY   59  41  51 S8        29.94F
LETHBRIDGE     MOSUNNY   61  37  41 VRB6      29.94F
MEDICINE HAT   MOSUNNY   63  39  42 W10       29.93S
WATERTON GATE    N/A     61  45  55 E7          N/A
ONEFOUR          N/A     61  39  44 NW13G18     N/A
$$

REGIONAL REPORTS...SASKATCHEWAN

CITY           SKY/WX    TMP DP  RH WIND       PRES   REMARKS
SWIFT CURRENT  SUNNY     61  39  44 NW22G31   29.85F
REGINA         MOSUNNY   64  48  55 NW30G36   29.75R
SASKATOON      MOSUNNY   63  50  63 W22G31    29.68R
VAL MARIE        N/A     63  37  39 N17G23      N/A
ROCKGLEN         N/A     61  41  48 NW22G32     N/A
$$




USA.gov is the U.S. government's official web portal to all federal, state and local government web resources and services.